TimeEST,TemperatureF,Dew PointF,Humidity,Sea Level PressureIn,VisibilityMPH,Wind Direction,Wind SpeedMPH,Gust SpeedMPH,PrecipitationIn,Events,Conditions,WindDirDegrees,DateUTC
12:54 AM,39.0,35.1,86,29.88,10.0,SE,11.5,-,N/A,,Overcast,130,2014-01-11 05:54:00
1:54 AM,43.0,37.9,82,29.82,10.0,SSE,9.2,-,0.00,Rain,Light Rain,150,2014-01-11 06:54:00
2:54 AM,46.9,39.9,77,29.79,10.0,South,18.4,27.6,0.01,,Overcast,180,2014-01-11 07:54:00
3:54 AM,46.0,39.9,79,29.74,10.0,South,17.3,21.9,N/A,,Overcast,190,2014-01-11 08:54:00
4:54 AM,46.9,39.9,77,29.70,10.0,South,10.4,23.0,N/A,,Overcast,190,2014-01-11 09:54:00
5:54 AM,46.9,41.0,80,29.66,10.0,South,9.2,-,N/A,,Overcast,190,2014-01-11 10:54:00
6:54 AM,46.9,41.0,80,29.62,10.0,South,9.2,-,N/A,,Overcast,180,2014-01-11 11:54:00
7:54 AM,46.9,41.0,80,29.60,10.0,South,6.9,-,N/A,,Overcast,180,2014-01-11 12:54:00
8:54 AM,48.0,44.1,86,29.57,9.0,South,9.2,-,0.00,Rain,Light Rain,180,2014-01-11 13:54:00
9:54 AM,48.0,45.0,89,29.54,6.0,South,9.2,-,0.04,Rain,Light Rain,180,2014-01-11 14:54:00
10:54 AM,50.0,46.9,89,29.49,4.0,South,8.1,-,0.10,Rain,Rain,180,2014-01-11 15:54:00
11:54 AM,51.1,48.0,89,29.41,10.0,SSW,10.4,-,0.08,Rain,Light Rain,210,2014-01-11 16:54:00
12:54 PM,51.1,46.9,86,29.34,10.0,SSW,9.2,-,0.01,,Overcast,200,2014-01-11 17:54:00
1:54 PM,52.0,46.9,83,29.28,10.0,SSW,8.1,-,0.00,,Overcast,210,2014-01-11 18:54:00
2:54 PM,48.9,46.0,90,29.24,10.0,SSW,8.1,-,N/A,,Overcast,210,2014-01-11 19:54:00
3:54 PM,51.1,46.0,83,29.23,10.0,SW,9.2,-,N/A,,Overcast,220,2014-01-11 20:54:00
4:54 PM,53.1,46.9,80,29.24,10.0,SW,16.1,25.3,N/A,,Overcast,220,2014-01-11 21:54:00
5:06 PM,51.8,46.4,82,29.26,2.0,West,24.2,35.7,0.00,Rain,Heavy Rain,260,2014-01-11 22:06:00
5:19 PM,48.2,44.6,87,29.28,2.0,West,32.2,48.3,0.05,Rain,Light Rain,260,2014-01-11 22:19:00
5:23 PM,48.2,42.8,82,29.27,4.0,West,27.6,48.3,0.05,Rain,Light Rain,260,2014-01-11 22:23:00
5:54 PM,46.0,41.0,83,29.29,10.0,WSW,17.3,28.8,0.05,Rain,Light Rain,250,2014-01-11 22:54:00
6:12 PM,46.4,39.2,76,29.28,10.0,WSW,26.5,34.5,0.00,,Overcast,250,2014-01-11 23:12:00
6:54 PM,44.1,37.9,79,29.30,10.0,West,26.5,39.1,0.00,,Mostly Cloudy,260,2014-01-11 23:54:00
7:54 PM,42.1,36.0,79,29.33,10.0,WSW,28.8,44.9,N/A,,Mostly Cloudy,250,2014-01-12 00:54:00
8:54 PM,39.9,35.1,83,29.38,10.0,West,20.7,31.1,N/A,,Overcast,260,2014-01-12 01:54:00
9:19 PM,39.2,35.6,87,29.37,8.0,West,21.9,34.5,0.00,Rain,Light Rain,260,2014-01-12 02:19:00
9:29 PM,39.2,35.6,87,29.36,10.0,WSW,27.6,33.4,0.00,,Overcast,250,2014-01-12 02:29:00
9:54 PM,39.9,33.1,77,29.40,10.0,WSW,20.7,34.5,0.00,,Overcast,250,2014-01-12 02:54:00
10:09 PM,39.2,33.8,81,29.39,10.0,WSW,19.6,35.7,0.00,Rain,Light Rain,250,2014-01-12 03:09:00
10:19 PM,37.4,33.8,87,29.40,10.0,WSW,20.7,29.9,0.00,,Overcast,250,2014-01-12 03:19:00
10:54 PM,37.9,32.0,79,29.45,10.0,West,15.0,29.9,0.00,,Overcast,260,2014-01-12 03:54:00
11:54 PM,37.0,30.9,79,29.47,10.0,West,21.9,33.4,N/A,,Mostly Cloudy,260,2014-01-12 04:54:00